Flag for Germany Weather past 2 weeks in Remscheid, North Rhine-Westphalia, Germany

Now
57 °F

Scattered clouds.


Feels Like: 54 °F
Forecast: 51 / 63 °F
Wind: 14 mph from Southwest

Location: Duesseldorf

Current Time: Jul 29, 2015 at 9:25:27 AM

Latest Report: Jul 29, 2015 at 8:50 AM


Visibility: N/A

Pressure: 29.77 "Hg

Humidity: 77%

Dew point: 50 °F

Location of RemscheidLocation

Historic Weather in Remscheid — Graph

°F

Remscheid temperature yesterday

Maximum temperature yesterday: 64 °F (at 3:50 PM)
Minimum temperature yesterday: 55 °F (at 3:20 AM)
Average temperature yesterday: 60 °F

Past Weeks' High & Low Weather Summary

 TemperatureHumidityPressure
High91 °F (Jul 17, 4:50 PM)100% (Jul 16, 4:50 AM)30.12 "Hg (Jul 16, 4:50 AM)
Low48 °F (Jul 26, 5:50 AM)26% (Jul 17, 4:50 PM)29.50 "Hg (Jul 25, 6:50 AM)
Average67 °F72%29.89 "Hg
* Reported Jul 14 8:20 AM — Jul 29 8:20 AM, Remscheid, Weather by CustomWeather, © 2015

Note: Actual official high and low records may vary slightly from our data, if they occured in-between our weather recording intervals... More about our weather records

Advertising

Remscheid weather history for previous 24 hours

 ConditionsComfort  
Time TempWeatherWind HumidityBarometerVisibility
8:20 AM
Wed, Jul 29
57 °FPartly sunny.13 mph82%29.77 "HgN/A
7:50 AM55 °FPartly sunny.12 mph82%29.77 "HgN/A
7:20 AM55 °FPartly sunny.12 mph82%29.77 "HgN/A
6:50 AM55 °FPassing clouds.14 mph82%29.77 "HgN/A
6:20 AM55 °FPassing clouds.14 mph82%29.77 "HgN/A
5:50 AM55 °FPassing clouds.13 mph82%29.77 "HgN/A
5:20 AM55 °FPassing clouds.14 mph77%29.77 "HgN/A
4:50 AM57 °FPassing clouds.16 mph77%29.77 "HgN/A
4:20 AM55 °FPassing clouds.17 mph77%29.77 "HgN/A
3:50 AM55 °FClear.18 mph77%29.77 "Hg10 mi
3:20 AM55 °FClear.15 mph77%29.77 "Hg10 mi
2:50 AM55 °FClear.13 mph72%29.77 "Hg10 mi
2:20 AM55 °FClear.14 mph72%29.77 "Hg10 mi
1:50 AM55 °FClear.15 mph72%29.77 "Hg10 mi
1:20 AM55 °FClear.13 mph67%29.77 "Hg10 mi
12:50 AM55 °FClear.13 mph67%29.77 "Hg10 mi
11:20 PM
Tue, Jul 28
57 °FClear.13 mph67%29.77 "Hg10 mi
10:50 PM57 °FClear.14 mph67%29.77 "Hg10 mi
10:20 PM59 °FScattered clouds.10 mph59%29.77 "HgN/A
9:50 PM61 °FScattered clouds.12 mph55%29.77 "HgN/A
9:20 PM61 °FBroken clouds.13 mph55%29.77 "HgN/A
8:50 PM63 °FBroken clouds.13 mph56%29.74 "HgN/A
8:20 PM64 °FBroken clouds.17 mph52%29.74 "HgN/A
7:50 PM64 °FPartly sunny.17 mph56%29.74 "HgN/A
7:20 PM64 °FBroken clouds.13 mph56%29.74 "HgN/A
6:50 PM64 °FBroken clouds.17 mph56%29.74 "HgN/A
6:20 PM64 °FPartly sunny.15 mph60%29.74 "HgN/A
5:50 PM63 °FPartly sunny.15 mph64%29.74 "HgN/A
5:20 PM63 °FSprinkles. Broken clouds.13 mph64%29.74 "HgN/A
4:50 PM64 °FBroken clouds.16 mph60%29.74 "HgN/A
4:20 PM64 °FBroken clouds.16 mph60%29.74 "HgN/A
3:50 PM64 °FPartly sunny.20 mph60%29.74 "HgN/A
3:20 PM63 °FBroken clouds.23 mph64%29.74 "HgN/A
2:50 PM63 °FSprinkles. Broken clouds.23 mph68%29.74 "HgN/A
2:20 PM61 °FBroken clouds.22 mph77%29.74 "HgN/A
1:50 PM61 °FPartly sunny.16 mph83%29.74 "HgN/A
1:20 PM57 °FSprinkles. Broken clouds.18 mph88%29.74 "Hg5 mi
12:50 PM57 °FSprinkles. Broken clouds.23 mph94%29.74 "Hg5 mi
12:20 PM63 °FPartly sunny.21 mph64%29.71 "HgN/A
11:20 AM63 °FBroken clouds.22 mph68%29.71 "HgN/A
10:50 AM63 °FPartly sunny.22 mph68%29.71 "HgN/A
10:20 AM61 °FPartly sunny.22 mph72%29.68 "HgN/A
9:50 AM61 °FPartly sunny.20 mph77%29.68 "HgN/A
9:20 AM59 °FPartly sunny.16 mph77%29.68 "HgN/A
Weather by CustomWeather, © 2015

See weather overviewHow to use our weather pages